Location: Mary A Oil Field
(38.5606°N, 98.9545°W)
Time: 12:50:04
(UTC+00:00)

Cosmos 1703 - Pass Details

Date: 20 January 2020
Orbit: 524 x 541 km, 82.5° (Epoch: 20 February)

Event Time Altitude Azimuth Distance (km) Brightness Sun altitude
Rises 01:26:23 0° 180° (S) 2,674 7.0 -20.0°
Reaches altitude 10° 01:28:31 10° 178° (S) 1,790 6.0 -20.5°
Enters shadow 01:32:19 68° 109° (ESE) 583 3.1 -21.2°
